This is the latest recevied weather packets stored in our database for station/object DB0SMU-12. If no packets are shown the sender has not sent any weather packets the latest 1 day(s).
| Time | Temp. | Humidity | Pressure | Rain* | Wind** | Luminosity | Snow |
|---|---|---|---|---|---|---|---|
| 1777994396 | 18.33° C | 52% | 1008.4 hPa | 0 mm | 2.24 m/s, 286° | - | - |
| 1777994215 | 17.78° C | 53% | 1008.3 hPa | 0 mm | 2.68 m/s, 275° | - | - |
| 1777994034 | 17.78° C | 54% | 1008.3 hPa | 0 mm | 3.13 m/s, 254° | - | - |
| 1777993853 | 17.78° C | 53% | 1008.3 hPa | 0 mm | 3.13 m/s, 254° | - | - |
| 1777993672 | 17.78° C | 54% | 1008.4 hPa | 0 mm | 2.24 m/s, 288° | - | - |
| 1777993491 | 17.78° C | 55% | 1008.3 hPa | 0 mm | 2.68 m/s, 250° | - | - |
| 1777993310 | 17.22° C | 55% | 1008.3 hPa | 0 mm | 2.68 m/s, 268° | - | - |
| 1777993129 | 17.22° C | 54% | 1008.3 hPa | 0 mm | 2.24 m/s, 297° | - | - |
| 1777992948 | 17.22° C | 54% | 1008.3 hPa | 0 mm | 2.24 m/s, 290° | - | - |
| 1777992767 | 17.22° C | 55% | 1008.3 hPa | 0 mm | 2.24 m/s, 288° | - | - |
| 1777992586 | 17.22° C | 54% | 1008.3 hPa | 0 mm | 2.24 m/s, 292° | - | - |
| 1777992405 | 17.22° C | 55% | 1008.3 hPa | 0 mm | 1.79 m/s, 291° | - | - |
| 1777992225 | 17.22° C | 55% | 1008.3 hPa | 0 mm | 2.24 m/s, 299° | - | - |
| 1777992044 | 17.22° C | 55% | 1008.4 hPa | 0 mm | 1.79 m/s, 303° | - | - |
| 1777991863 | 17.22° C | 55% | 1008.4 hPa | 0 mm | 2.24 m/s, 315° | - | - |
| 1777991682 | 17.22° C | 56% | 1008.3 hPa | 0 mm | 2.24 m/s, 252° | - | - |
| 1777991501 | 17.22° C | 56% | 1008.3 hPa | 0 mm | 1.79 m/s, 283° | - | - |
| 1777991320 | 17.22° C | 56% | 1008.3 hPa | 0 mm | 2.24 m/s, 304° | - | - |
| 1777991139 | 17.22° C | 57% | 1008.4 hPa | 0 mm | 1.79 m/s, 296° | - | - |
| 1777990958 | 17.22° C | 56% | 1008.5 hPa | 0 mm | 2.68 m/s, 308° | - | - |
| 1777990777 | 17.22° C | 57% | 1008.3 hPa | 0 mm | 3.13 m/s, 310° | - | - |
| 1777990596 | 17.22° C | 58% | 1008.4 hPa | 0 mm | 3.58 m/s, 307° | - | - |
| 1777990416 | 17.22° C | 57% | 1008.4 hPa | 0 mm | 2.68 m/s, 308° | - | - |
| 1777990235 | 17.22° C | 60% | 1008.4 hPa | 0 mm | 3.13 m/s, 304° | - | - |
| 1777990054 | 17.22° C | 60% | 1008.6 hPa | 0 mm | 3.58 m/s, 307° | - | - |
* Rain latest hour (hover to see other rain measurements)
** Current wind speed in m/s (hover to see current wind gust speed)